Tracking 30743 objects as of 21-Jun-2025
HD Live streaming from Space Station
objects crossing your sky now

STARLINK 1031

Track STARLINK 1031 now!
10-day predictions
STARLINK 1031 is classified as:


NORAD ID: 44736
Int'l Code: 2019-074Z
Perigee: 488.3 km
Apogee: 491.8 km
Inclination: 53.1 °
Period: 94.3 minutes
Semi major axis: 6861 km
RCS: Unknown
Launch date: November 11, 2019
Source: United States (US)
Launch site: AIR FORCE EASTERN TEST RANGE (AFETR)
Your satellite tracking list
Your tracking list is empty




NASA's NSSDC Master Catalog

Two Line Element Set (TLE):
1 44736U 19074Z   25171.98072148  .00033570  00000-0  12338-2 0  9997
2 44736  53.0556 297.5435 0002585 256.9501 103.1209 15.27623572309258
Source of the keplerian elements: AFSPC